When you browse on this site, cookies collect data to enhance your experience and personalize the content and advertising you see.
Visit our Privacy Policy to learn more. By continuing to use the site, you agree to this use of cookies and data.
  • En España
  • Lista de países
  • Para 7 días
  • Temperatura del agua
  • Mapa Satelital
  • El tiempo en el mapa
  • Informadores
  • user-avatar
    Iniciar sesión

    Tiempo cada hora Khulna

    Hoy, 21 Noviembre, Miércoles

    Tiempo Temperatura Precipitaciones Viento Presión Humedad
    00:00 +21°C° 0 mm 0 mps 760 mmHg 61%
    01:00 +23°C° 0 mm 1 mps 760 mmHg 61%
    02:00 +23°C° 0 mm 1 mps 760 mmHg 62%
    03:00 +22°C° 0 mm 1 mps 760 mmHg 63%
    04:00 +22°C° 0 mm 1 mps 760 mmHg 64%
    05:00 +22°C° 0 mm 1 mps 760 mmHg 66%
    06:00 +19°C° 0 mm 0 mps 760 mmHg 66%
    07:00 +23°C° 0 mm 1 mps 761 mmHg 61%
    08:00 +25°C° 0 mm 1 mps 761 mmHg 57%
    09:00 +27°C° 0 mm 2 mps 761 mmHg 52%
    10:00 +28°C° 0 mm 2 mps 761 mmHg 48%
    11:00 +30°C° 0 mm 2 mps 761 mmHg 44%
    12:00 +31°C° 0 mm 2 mps 761 mmHg 38%
    13:00 +31°C° 0 mm 2 mps 760 mmHg 37%
    14:00 +31°C° 0 mm 2 mps 759 mmHg 35%
    15:00 +32°C° 0 mm 2 mps 759 mmHg 34%
    16:00 +30°C° 0 mm 2 mps 759 mmHg 38%
    17:00 +28°C° 0 mm 2 mps 759 mmHg 41%
    18:00 +26°C° 0 mm 1 mps 759 mmHg 45%
    19:00 +25°C° 0 mm 1 mps 759 mmHg 47%
    20:00 +25°C° 0 mm 1 mps 760 mmHg 48%
    21:00 +24°C° 0 mm 1 mps 760 mmHg 50%
    22:00 +23°C° 0 mm 1 mps 760 mmHg 52%
    23:00 +23°C° 0 mm 1 mps 760 mmHg 55%

    Mañana, 22 Noviembre, Jueves

    Tiempo Temperatura Precipitaciones Viento Presión Humedad
    00:00 +22°C° 0 mm 1 mps 760 mmHg 57%
    01:00 +22°C° 0 mm 1 mps 760 mmHg 59%
    02:00 +22°C° 0 mm 1 mps 760 mmHg 61%
    03:00 +21°C° 0 mm 1 mps 760 mmHg 63%
    04:00 +21°C° 0 mm 1 mps 760 mmHg 64%
    05:00 +21°C° 0 mm 1 mps 760 mmHg 66%
    06:00 +20°C° 0 mm 1 mps 761 mmHg 68%
    07:00 +22°C° 0 mm 1 mps 761 mmHg 63%
    08:00 +24°C° 0 mm 2 mps 762 mmHg 58%
    09:00 +26°C° 0 mm 2 mps 762 mmHg 53%
    10:00 +28°C° 0 mm 2 mps 762 mmHg 48%
    11:00 +29°C° 0 mm 3 mps 761 mmHg 43%
    12:00 +31°C° 0 mm 3 mps 761 mmHg 37%
    13:00 +31°C° 0 mm 3 mps 760 mmHg 37%
    14:00 +31°C° 0 mm 3 mps 760 mmHg 36%
    15:00 +31°C° 0 mm 3 mps 759 mmHg 35%
    16:00 +29°C° 0 mm 3 mps 759 mmHg 39%
    17:00 +28°C° 0 mm 2 mps 759 mmHg 43%
    18:00 +26°C° 0 mm 2 mps 759 mmHg 48%
    19:00 +25°C° 0 mm 2 mps 760 mmHg 49%
    20:00 +25°C° 0 mm 2 mps 760 mmHg 51%
    21:00 +24°C° 0 mm 2 mps 761 mmHg 53%
    22:00 +23°C° 0 mm 2 mps 761 mmHg 55%
    23:00 +23°C° 0 mm 2 mps 761 mmHg 57%

    Pasado mañana, 23 Noviembre, Viernes

    Tiempo Temperatura Precipitaciones Viento Presión Humedad
    00:00 +23°C° 0 mm 2 mps 761 mmHg 59%
    01:00 +21°C° 0 mm 2 mps 760 mmHg 61%
    02:00 +21°C° 0 mm 2 mps 760 mmHg 64%
    03:00 +21°C° 0 mm 2 mps 760 mmHg 66%
    04:00 +21°C° 0 mm 1 mps 760 mmHg 68%
    05:00 +21°C° 0 mm 1 mps 760 mmHg 70%
    06:00 +21°C° 0 mm 1 mps 761 mmHg 72%
    07:00 +23°C° 0 mm 1 mps 761 mmHg 66%
    08:00 +24°C° 0 mm 2 mps 762 mmHg 61%
    09:00 +26°C° 0 mm 2 mps 762 mmHg 55%
    10:00 +28°C° 0 mm 2 mps 762 mmHg 50%
    11:00 +29°C° 0 mm 2 mps 761 mmHg 45%
    12:00 +30°C° 0 mm 2 mps 761 mmHg 39%
    13:00 +30°C° 0 mm 2 mps 760 mmHg 38%
    14:00 +31°C° 0 mm 2 mps 759 mmHg 37%
    15:00 +31°C° 0 mm 2 mps 758 mmHg 35%
    16:00 +29°C° 0 mm 2 mps 759 mmHg 40%
    17:00 +27°C° 0 mm 2 mps 759 mmHg 44%
    18:00 +26°C° 0 mm 1 mps 759 mmHg 48%
    19:00 +25°C° 0 mm 1 mps 759 mmHg 49%
    20:00 +24°C° 0 mm 1 mps 760 mmHg 50%
    21:00 +24°C° 0 mm 2 mps 760 mmHg 51%
    22:00 +23°C° 0 mm 2 mps 760 mmHg 52%
    23:00 +23°C° 0 mm 2 mps 760 mmHg 53%

    24 Noviembre, Sábado

    Tiempo Temperatura Precipitaciones Viento Presión Humedad
    00:00 +23°C° 0 mm 2 mps 760 mmHg 54%
    01:00 +21°C° 0 mm 2 mps 760 mmHg 55%
    02:00 +22°C° 0 mm 1 mps 760 mmHg 57%
    03:00 +22°C° 0 mm 1 mps 759 mmHg 59%
    04:00 +21°C° 0 mm 1 mps 759 mmHg 61%
    05:00 +21°C° 0 mm 1 mps 760 mmHg 63%
    06:00 +21°C° 0 mm 1 mps 760 mmHg 65%
    07:00 +23°C° 0 mm 1 mps 761 mmHg 60%
    08:00 +24°C° 0 mm 1 mps 762 mmHg 56%
    09:00 +26°C° 0 mm 1 mps 762 mmHg 52%
    10:00 +28°C° 0 mm 2 mps 762 mmHg 47%
    11:00 +29°C° 0 mm 2 mps 761 mmHg 42%
    12:00 +30°C° 0 mm 2 mps 761 mmHg 37%
    13:00 +30°C° 0 mm 2 mps 760 mmHg 36%
    14:00 +31°C° 0 mm 2 mps 759 mmHg 35%
    15:00 +31°C° 0 mm 2 mps 759 mmHg 34%
    16:00 +29°C° 0 mm 2 mps 759 mmHg 38%
    17:00 +27°C° 0 mm 2 mps 759 mmHg 42%
    18:00 +26°C° 0 mm 2 mps 759 mmHg 46%
    19:00 +25°C° 0 mm 2 mps 759 mmHg 48%
    20:00 +24°C° 0 mm 2 mps 760 mmHg 49%
    21:00 +24°C° 0 mm 2 mps 760 mmHg 51%
    22:00 +23°C° 0 mm 1 mps 760 mmHg 53%
    23:00 +23°C° 0 mm 1 mps 760 mmHg 55%

    25 Noviembre, Domingo

    Tiempo Temperatura Precipitaciones Viento Presión Humedad
    00:00 +22°C° 0 mm 1 mps 760 mmHg 57%
    01:00 +22°C° 0 mm 1 mps 759 mmHg 59%
    02:00 +22°C° 0 mm 1 mps 759 mmHg 61%
    03:00 +21°C° 0 mm 1 mps 759 mmHg 63%
    04:00 +21°C° 0 mm 1 mps 759 mmHg 65%
    05:00 +21°C° 0 mm 1 mps 759 mmHg 66%
    06:00 +20°C° 0 mm 1 mps 759 mmHg 68%
    07:00 +22°C° 0 mm 1 mps 760 mmHg 64%
    08:00 +24°C° 0 mm 2 mps 761 mmHg 59%
    09:00 +26°C° 0 mm 2 mps 761 mmHg 54%
    10:00 +27°C° 0 mm 2 mps 761 mmHg 49%
    11:00 +29°C° 0 mm 2 mps 760 mmHg 43%
    12:00 +30°C° 0 mm 2 mps 760 mmHg 38%
    13:00 +30°C° 0 mm 2 mps 759 mmHg 36%
    14:00 +31°C° 0 mm 2 mps 758 mmHg 34%
    15:00 +31°C° 0 mm 2 mps 757 mmHg 32%
    16:00 +29°C° 0 mm 1 mps 758 mmHg 36%
    17:00 +27°C° 0 mm 1 mps 758 mmHg 40%
    18:00 +26°C° 0 mm 1 mps 758 mmHg 43%
    19:00 +25°C° 0 mm 1 mps 759 mmHg 45%
    20:00 +24°C° 0 mm 1 mps 759 mmHg 47%
    21:00 +24°C° 0 mm 1 mps 759 mmHg 48%
    22:00 +23°C° 0 mm 1 mps 759 mmHg 50%
    23:00 +21°C° 0 mm 0 mps 759 mmHg 51%

    26 Noviembre, Lunes

    Tiempo Temperatura Precipitaciones Viento Presión Humedad
    00:00 +20°C° 0 mm 0 mps 759 mmHg 52%
    01:00 +22°C° 0 mm 1 mps 759 mmHg 54%
    02:00 +22°C° 0 mm 1 mps 758 mmHg 56%
    03:00 +21°C° 0 mm 1 mps 758 mmHg 57%
    04:00 +21°C° 0 mm 1 mps 758 mmHg 60%
    05:00 +21°C° 0 mm 1 mps 759 mmHg 62%
    06:00 +21°C° 0 mm 1 mps 759 mmHg 65%
    07:00 +23°C° 0 mm 1 mps 759 mmHg 61%
    08:00 +25°C° 0 mm 1 mps 760 mmHg 56%
    09:00 +27°C° 0 mm 2 mps 761 mmHg 51%
    10:00 +28°C° 0 mm 2 mps 760 mmHg 47%
    11:00 +30°C° 0 mm 2 mps 760 mmHg 42%
    12:00 +31°C° 0 mm 2 mps 759 mmHg 38%
    13:00 +32°C° 0 mm 1 mps 759 mmHg 37%
    14:00 +32°C° 0 mm 1 mps 758 mmHg 36%
    15:00 +32°C° 0 mm 1 mps 757 mmHg 35%
    16:00 +30°C° 0 mm 1 mps 758 mmHg 39%
    17:00 +29°C° 0 mm 1 mps 758 mmHg 43%
    18:00 +27°C° 0 mm 1 mps 758 mmHg 48%
    19:00 +26°C° 0 mm 1 mps 759 mmHg 51%
    20:00 +25°C° 0 mm 1 mps 759 mmHg 55%
    21:00 +25°C° 0 mm 1 mps 760 mmHg 59%
    22:00 +24°C° 0 mm 1 mps 759 mmHg 62%
    23:00 +24°C° 0 mm 1 mps 759 mmHg 65%
    Mostrar más